SCP
0 0 -0 0 0 0 0 0 0 0 0 0 0 0 0 0 0 0 0 0 0 0 0 0 0 0 0 0 0 0 0 0 0 0 0 0 0 0 0 0 0 0 0
0 0 -0 0 0 0 0 0 0 0 0 0 0 0 0 0 0 0 0 0 0 0 0 0 0 0 0 0 0 0 0 0 0 0 0 0 0 0 0 0 0 0 0
0 0 0 0 0 0 0 0 0 0 0 0 0 0 0 0 0 0 0 0 0 0 0 0 0 0 0 0 0 0 0 0 0 0 0 0 0 0 0 0 0 0 0
0 0 -0 0 0 0 0 0 0 0 0 0 0 0 0 0 0 0 0 0 0 0 0 0 0 0 0 0 0 0 0 0 0 0 0 0 0 0 0 0 0 0 0
0 0 -0 0 0 0 0 0 0 0 0 0 0 0 0 0 0 0 0 0 0 0 0 0 0 0 0 0 0 0 0 0 0 0 0 0 0 0 0 0 0 0 0
0 0 0 0 0 0 0 0 0 0 0 0 0 0 0 0 0 0 0 0 0 0 0 0 0 0 0 0 0 0 0 0 0 0 0 0 0 0 0 0 0 0 0
0 0 0 0 0 0 0 0 0 0 0 0 0 0 0 0 0 0 0 0 0 0 0 0 0 0 0 0 0 0 0 0 0 0 0 0 0 0 0 0 0 0 0
0 0 0 0 0 0 0 0 0 0 0 0 0 0 0 0 0 0 0 0 0 0 0 0 0 0 0 0 0 0 0 0 0 0 0 0 0 0 0 0 0 0 0
0 0 0 0 0 0 0 0 0 0 0 0 0 0 0 0 0 0 0 0 0 0 0 0 0 0 0 0 0 0 0 0 0 0 0 0 0 0 0 0 0 0 0
0 0 0 0 0 0 0 0 0 0 0 0 0 0 0 0 0 0 0 0 0 0 0 0 0 0 0 0 0 0 0 0 0 0 0 0 0 0 0 0 0 0 0
0 0 0 0 0 0 0 0 0 0 0 0 0 0 0 0 0 0 0 0 0 0 0 0 0 0 0 0 0 0 0 0 0 0 0 0 0 0 0 0 0 0 0
0 0 0 0 0 0 0 0 0 0 0 0 0 0 0 0 0 0 0 0 0 0 0 0 0 0 0 0 0 0 0 0 0 0 0 0 0 0 0 0 0 0 0
0 0 0 0 0 0 0 0 0 0 0 0 0 0 0 0 0 0 0 0 0 0 0 0 0 0 0 0 0 0 0 0 0 0 0 0 0 0 0 0 0 0 0
0 0 0 0 0 0 0 0 0 0 0 0 0 0 0 0 0 0 0 0 0 0 0 0 0 0 0 0 0 0 0 0 0 0 0 0 0 0 0 0 0 0 0
0 0 0 0 0 0 0 0 0 0 0 0 0 0 0 0 0 0 0 0 0 0 0 0 0 0 0 0 0 0 0 0 0 0 0 0 0 0 0 0 0 0 0
0 0 0 0 0 0 0 0 0 0 0 0 0 0 0 0 0 0 0 0 0 0 0 0 0 0 0 0 0 0 0 0 0 0 0 0 0 0 0 0 0 0 0
0 0 0 0 0 0 0 0 0 0 0 0 0 0 0 0 0 0 0 0 0 0 0 0 0 0 0 0 0 0 0 0 0 0 0 0 0 0 0 0 0 0 0
0 0 0 0 0 0 0 0 0 0 0 0 0 0 0 0 0 0 0 0 0 0 0 0 0 0 0 0 0 0 0 0 0 0 0 0 0 0 0 0 0 0 0
0 0 0 0 0 0 0 0 0 0 0 0 0 0 0 0 0 0 0 0 0 0 0 0 0 0 0 0 0 0 0 0 0 0 0 0 0 0 0 0 0 0 0
0 0 0 0 0 0 0 0 0 0 0 0 0 0 0 0 0 0 0 0 0 0 0 0 0 0 0 0 0 0 0 0 0 0 0 0 0 0 0 0 0 0 0
0 0 0 0 0 0 0 0 0 0 0 0 0 0 0 0 0 0 0 0 0 0 0 0 0 0 0 0 0 0 0 0 0 0 0 0 0 0 0 0 0 0 0
0 0 0 0 0 0 0 0 0 0 0 0 0 0 0 0 0 0 0 0 0 0 0 0 0 0 0 0 0 0 0 0 0 0 0 0 0 0 0 0 0 0 0
0 0 0 0 0 0 0 0 0 0 0 0 0 0 0 0 0 0 0 0 0 0 0 0 0 0 0 0 0 0 0 0 0 0 0 0 0 0 0 0 0 0 0
0 0 0 0 0 0 0 0 0 0 0 0 0 0 0 0 0 0 0 0 0 0 0 0 0 0 0 0 0 0 0 0 0 0 0 0 0 0 0 0 0 0 0
0 0 0 0 0 0 0 0 0 0 0 0 0 0 0 0 0 0 0 0 0 0 0 0 0 0 0 0 0 0 0 0 0 0 0 0 0 0 0 0 0 0 0
0 0 0 0 0 0 0 0 0 0 0 0 0 0 0 0 0 0 0 0 0 0 0 0 0 0 0 0 0 0 0 0 0 0 0 0 0 0 0 0 0 0 0
Wind_Speed
7 5 4 4 4 5 6 8 9 9 8 7 8 8 9 8 8 9 11 12 12 12 11 9 8 9 9 9 9 7 7 6 4 3 3 3 5 7 6 6 6 8 8
5 5 4 4 4 5 6 7 8 9 9 9 9 8 8 7 7 7 9 12 12 13 11 11 9 9 8 9 9 7 6 5 6 5 3 3 4 6 8 7 7 8 7
5 5 4 3 3 4 6 6 7 8 9 9 6 4 3 3 4 7 8 11 13 13 12 13 10 10 9 9 11 10 9 7 6 6 6 5 7 3 4 7 8 8 7
3 3 3 3 3 4 4 5 6 7 7 7 7 9 8 9 10 9 9 9 12 12 13 12 12 11 9 9 10 10 8 7 6 5 6 5 4 4 3 3 5 7 8
3 3 3 3 3 4 3 4 4 5 6 7 8 10 10 9 7 6 8 9 10 11 12 12 11 11 10 10 10 10 10 8 8 6 4 5 4 3 3 4 3 4 6
3 4 3 3 4 3 3 3 3 5 5 6 7 9 11 10 7 8 9 8 7 9 11 12 12 12 10 11 11 11 11 10 9 8 6 5 5 6 5 6 5 5 5
3 4 4 4 4 4 4 4 4 5 5 6 7 8 10 10 11 10 10 8 8 8 11 12 12 11 11 11 10 11 11 12 11 10 9 8 7 4 5 5 5 5 4
3 4 5 4 4 4 4 4 5 5 5 5 6 7 8 7 8 9 9 9 9 9 10 12 12 12 12 11 11 10 11 10 12 12 11 8 8 6 5 5 5 4 4
4 5 5 5 5 5 5 5 5 5 5 5 5 6 6 7 8 8 9 8 8 7 9 10 12 12 12 12 12 10 12 11 12 11 11 10 8 7 6 5 6 6 7
6 6 6 6 5 5 5 5 4 5 5 5 5 4 5 7 7 7 8 9 9 8 9 10 11 11 12 12 12 10 10 11 11 9 11 11 8 7 7 7 6 7 8
7 7 7 6 6 5 5 4 4 4 4 5 5 4 5 5 5 6 8 8 8 9 10 10 11 12 12 12 12 12 11 13 12 11 12 13 10 8 7 7 6 7 7
7 7 6 6 5 5 5 4 4 4 5 5 4 4 4 4 5 6 7 7 8 9 10 10 11 12 12 12 13 13 12 13 13 13 12 12 9 10 8 7 8 8 8
8 7 6 5 5 5 5 5 4 5 5 4 4 4 4 5 6 7 7 7 7 7 8 8 10 11 12 12 13 13 12 13 13 12 12 12 11 12 9 9 8 7 7
7 7 6 5 6 5 5 4 5 5 5 4 4 5 5 5 6 6 6 6 6 7 7 8 9 10 10 11 11 12 12 12 12 11 11 11 11 12 11 9 9 7 7
7 6 6 5 5 5 5 5 5 5 5 4 4 5 5 5 5 6 5 5 5 6 7 7 7 7 7 8 10 10 11 11 10 9 9 10 10 11 9 7 7 8 7
7 6 6 6 5 5 5 6 6 6 5 5 5 5 5 5 5 5 4 4 5 5 5 6 6 7 6 8 9 10 9 9 9 8 8 8 9 10 11 11 10 9 9
6 6 6 5 5 5 5 5 5 5 5 5 5 5 6 5 5 4 4 4 4 4 4 5 6 6 6 7 8 9 8 8 8 8 7 5 6 8 7 8 9 9 10
5 5 5 5 5 5 5 5 5 5 5 5 5 6 6 6 5 4 4 4 3 3 4 4 5 5 5 6 6 7 7 5 5 6 6 6 5 6 6 6 6 6 6
5 5 5 5 5 5 5 5 5 5 5 5 6 6 6 5 5 5 5 4 3 3 3 3 4 4 4 4 4 4 4 4 4 4 4 5 5 7 7 6 6 5 3
4 4 4 4 5 5 4 5 5 5 6 6 6 5 5 4 4 4 5 4 3 3 3 3 3 4 4 3 4 4 3 3 3 3 3 5 6 7 8 6 6 5 4
5 4 4 4 5 5 4 5 5 6 7 6 6 5 5 4 4 4 3 4 3 3 3 3 3 3 3 3 3 4 3 3 3 3 3 3 6 7 8 7 5 6 4
5 4 4 4 5 4 4 5 6 7 7 6 5 5 5 4 3 3 4 4 3 3 3 2 2 2 2 2 2 3 3 2 3 3 3 3 6 6 7 5 5 6 6
5 4 4 5 5 4 4 5 7 7 7 5 5 5 5 4 3 3 4 3 3 2 2 2 2 2 1 1 2 2 2 2 2 2 3 4 6 6 5 5 6 6 4
5 4 4 5 6 5 5 5 6 6 6 5 5 4 4 4 4 3 3 3 3 2 2 2 2 2 2 1 0 0 1 1 0 1 2 3 4 4 4 4 3 2 3
4 3 4 5 6 6 6 6 6 6 5 5 4 4 4 4 4 4 3 3 3 3 3 3 2 2 2 2 3 1 0 1 1 2 1 1 2 3 2 2 2 3 3
4 4 4 5 6 6 6 6 6 5 5 5 4 3 3 3 3 3 4 5 5 7 6 5 4 3 3 3 2 2 1 2 4 3 2 2 2 3 3 3 3 3 3
Wind_Direction
255 256 256 253 242 229 218 213 209 207 198 196 197 201 208 209 210 209 205 202 202 201 202 204 204 202 203 204 199 195 200 208 183 180 241 262 241 233 229 222 220 222 220
269 274 275 270 250 235 223 218 214 208 202 202 203 205 206 208 211 210 208 204 203 202 204 204 205 205 206 203 200 197 197 204 185 173 174 250 270 245 231 222 223 225 220
263 281 287 280 266 252 237 225 221 216 210 207 198 194 194 200 206 212 211 209 207 205 205 206 204 205 205 209 207 201 199 207 202 190 181 195 227 247 247 225 224 222 220
259 275 291 295 274 258 255 242 227 221 216 206 197 192 200 209 212 212 212 211 208 208 208 207 205 205 207 209 210 208 206 197 205 212 217 213 186 195 248 256 231 225 225
262 275 283 282 279 269 261 255 245 230 221 214 209 205 213 219 218 214 212 212 211 210 209 208 206 207 210 211 209 208 207 206 206 204 207 222 228 217 210 249 244 236 231
283 287 296 311 308 300 296 282 261 244 228 218 216 211 218 222 219 216 215 213 214 212 211 210 210 210 211 213 213 211 210 213 213 212 207 200 205 208 207 229 237 238 239
276 291 303 310 307 306 303 299 277 257 241 230 227 220 219 221 220 219 218 215 215 215 212 211 213 213 214 214 213 213 214 214 214 216 219 221 224 209 204 219 234 244 248
288 289 291 290 290 291 287 285 279 267 253 243 242 238 225 223 226 224 224 219 219 218 215 213 214 216 215 216 215 217 217 215 218 221 220 224 227 219 213 210 211 241 250
312 303 301 304 300 294 283 273 271 271 260 247 243 245 235 228 232 229 227 224 223 220 215 218 218 217 217 218 217 221 220 218 220 222 221 226 230 225 224 221 211 215 241
306 303 297 298 296 287 285 290 284 273 264 256 246 249 241 237 234 233 234 228 224 221 216 221 222 220 219 219 219 224 222 221 223 222 223 227 229 228 224 224 226 222 229
301 297 296 296 299 299 290 287 290 293 285 275 266 266 260 250 240 236 237 236 231 223 222 222 224 221 220 219 220 225 221 223 226 224 224 229 226 225 226 224 224 227 224
303 302 301 309 312 308 303 295 294 297 292 284 282 279 275 271 254 246 242 240 237 229 224 225 227 225 222 219 221 225 222 223 226 226 225 229 226 227 225 223 224 227 225
311 316 319 318 313 305 302 300 299 295 293 292 289 288 285 278 264 254 250 241 239 238 228 224 228 228 225 222 221 222 222 223 225 226 226 228 224 227 225 224 225 226 227
309 313 316 316 315 314 310 308 306 306 305 304 300 293 283 279 275 263 253 248 244 240 236 231 230 230 229 227 224 221 223 224 226 227 227 227 224 228 225 224 225 221 223
309 311 314 316 318 318 319 320 317 317 314 313 310 298 293 289 289 277 265 260 254 247 238 235 234 231 229 232 230 222 222 223 225 227 227 227 226 227 225 223 221 215 219
302 306 310 313 315 314 318 321 322 321 322 319 309 310 306 303 297 284 275 269 267 260 247 238 234 235 238 242 234 226 220 220 220 224 226 225 222 221 220 222 220 215 215
301 308 309 304 304 307 309 312 314 317 320 316 317 321 315 308 303 303 297 279 272 270 259 247 239 241 247 246 233 225 220 218 218 218 218 220 222 218 218 219 218 217 215
292 298 302 306 307 307 308 307 312 315 316 316 319 321 319 314 314 315 308 302 292 279 269 265 256 250 255 246 233 222 222 222 219 217 216 214 215 213 207 208 215 222 222
272 276 282 292 303 309 311 312 312 314 317 317 316 315 316 314 317 315 311 308 306 294 280 273 263 256 267 252 225 216 216 220 221 217 212 214 215 210 194 194 205 215 229
280 285 291 296 301 304 313 317 315 319 314 309 307 310 313 312 311 313 311 309 303 293 289 282 273 260 266 260 229 213 209 213 219 214 211 215 214 199 187 192 195 208 213
291 297 300 300 300 308 319 318 318 314 307 308 312 318 323 319 314 316 311 309 308 304 295 287 288 278 274 256 227 217 212 207 208 206 209 213 203 194 188 191 197 200 176
307 310 309 305 309 317 322 318 314 312 310 313 319 325 326 325 328 321 317 318 315 306 302 304 309 306 295 276 241 229 229 218 206 212 208 202 187 185 184 188 181 155 138
295 299 298 303 313 321 321 315 314 319 317 318 321 323 329 332 330 322 319 319 316 310 311 319 314 318 332 308 292 260 238 235 221 211 195 181 173 172 176 172 160 145 141
291 301 309 310 314 321 321 310 312 316 316 317 319 324 330 329 331 328 322 317 313 314 313 316 318 320 329 331 314 239 232 245 211 131 145 154 150 139 133 139 147 144 146
292 300 300 300 306 316 317 317 319 322 321 316 316 321 324 323 326 329 325 315 308 306 301 294 291 298 302 310 317 314 250 195 169 130 99 102 119 123 121 116 120 123 125
291 298 300 302 307 313 313 317 321 325 321 317 319 318 317 320 321 323 332 345 332 334 329 323 316 308 313 324 336 348 350 141 145 132 135 141 147 149 148 142 134 131 135